Dewpoint
69 68 67 64 65 68 69 70 70 71 70 71 72 72 71 71 71 70 71 70 70 70
70 69 68 67 67 69 70 69 70 72 72 72 72 71 71 71 70 71 70 71 71 70
70 70 69 69 69 69 68 70 70 70 70 70 71 71 71 71 71 70 71 71 71 70
71 71 71 70 70 70 69 70 69 69 67 67 67 69 72 71 71 69 70 70 71 69
69 71 71 70 70 69 70 68 67 66 63 66 66 69 70 70 70 69 69 69 70 70
67 70 70 70 70 70 70 69 67 66 64 63 65 70 71 71 69 70 71 70 69 70
66 68 69 70 71 71 71 68 67 67 67 65 66 70 71 70 70 71 71 71 72 71
66 67 66 69 70 70 71 71 69 67 69 70 70 70 71 72 70 70 71 71 72 72
64 65 66 68 68 69 70 71 71 70 70 71 71 67 68 71 72 71 70 70 71 70
65 66 66 68 67 67 69 71 71 71 70 70 71 66 66 68 71 71 72 71 71 71
66 67 68 67 65 65 67 69 69 71 71 71 71 66 65 66 69 71 71 71 71 71
68 68 68 68 67 66 68 70 71 71 71 71 71 65 64 64 67 69 70 70 70 71
68 67 67 67 68 69 69 69 69 69 70 67 70 63 62 64 69 69 68 68 67 65
65 65 66 65 65 66 67 68 68 68 68 68 66 67 60 60 67 69 69 67 65 65
Lifted_Index
-4 -4 -3 -3 -2 -3 -3 -3 -4 -4 -4 -4 -3 -3 -3 -4 -4 -4 -4 -4 -4 -3
-4 -4 -3 -3 -2 -3 -3 -3 -4 -4 -4 -4 -4 -4 -3 -3 -3 -4 -4 -4 -4 -3
-4 -4 -4 -3 -3 -3 -3 -3 -3 -4 -4 -4 -4 -4 -4 -3 -3 -3 -4 -4 -4 -4
-5 -4 -4 -3 -3 -3 -3 -3 -3 -3 -4 -3 -3 -4 -4 -4 -3 -3 -3 -4 -4 -4
-4 -4 -4 -4 -3 -3 -3 -3 -3 -3 -3 -3 -3 -4 -4 -4 -3 -3 -3 -3 -4 -4
-3 -4 -4 -4 -4 -4 -4 -3 -3 -3 -3 -2 -3 -3 -4 -4 -3 -3 -3 -4 -4 -4
-2 -3 -4 -4 -4 -4 -4 -4 -4 -3 -3 -2 -2 -3 -4 -4 -4 -4 -4 -4 -4 -4
-1 -2 -3 -4 -4 -4 -4 -4 -4 -4 -3 -3 -3 -3 -4 -4 -4 -4 -4 -4 -4 -5
-0 -1 -2 -3 -4 -4 -4 -4 -4 -4 -4 -4 -4 -4 -4 -4 -4 -4 -4 -4 -5 -5
-0 -0 -1 -2 -3 -3 -3 -4 -4 -4 -4 -4 -4 -5 -5 -5 -4 -4 -4 -5 -4 -4
-1 -1 -1 -2 -2 -3 -3 -3 -4 -4 -5 -5 -5 -5 -5 -5 -5 -4 -4 -4 -4 -4
-2 -2 -2 -2 -2 -2 -2 -3 -4 -4 -5 -5 -5 -5 -5 -5 -5 -4 -4 -4 -4 -4
-3 -2 -2 -2 -2 -2 -2 -2 -3 -4 -4 -5 -5 -5 -5 -5 -4 -4 -4 -4 -4 -4
-2 -2 -2 -2 -2 -2 -2 -2 -3 -3 -4 -4 -4 -5 -4 -4 -4 -4 -4 -4 -4 -4